Volver al catálogo

SL-16 DEB

ActivoLEO
NORAD 18411·DEBRIS·🇷🇺 Russia

Lanzado May 13, 1987 desde Baikonur Cosmodrome

Loading…

Próximos Pases (próximas 24 horas)

TLE

ActualizadoSource: Space-Track

Época: Sep 14, 2026, 10:53 UTC

1 18411U 87041D   26257.45364676  .00000033  00000-0  67125-4 0  9999
2 18411  71.0284 257.4771 0186106  82.9841  67.3324 13.76497441974524

Sigue SL-16 DEB en tiempo real con AllMySat

Download on the App Store